Showing default

EAGLESAT 1, 43018

Orbit data source: Space-Track

EAGLESAT 1, 43018 is a payload satellite owned by Embry-Riddle (US) in SSO that was launched on Sat, 18 Nov 2017 UTC via a DELTA 7920-10C launch vehicle from the Air Force Western Test Range (AFWTR). Payload-class satellites include a variety of spacecraft equipped with specific instruments for various scientific and technological missions. These include communications satellites like Starlink; space stations such as the ISS; scientific satellites like the Hubble; Earth observation satellites from companies like Planet Labs, Umbra, and HawkEye 360; GPS; miniature CubeSats for education and research; and military/defense satellites.

Loading next visibility...
Identifier
43018, 2017-073F
Orbit
SSO
Last TLE update
17 hours ago
Origin
Manufacturer
Embry-Riddle
Mission
Non-operational Amateur Technology
Bus & Motor
CUBESAT 1U, Unknown motor
Mass
1 kg wet, 1 kg dry
Launch date (UTC)
2017-11-18 (8 years ago)
Launch vehicle
DELTA 7920-10C
Launch site
Air Force Western Test Range (AFWTR)
Object type
Payload
Rocket body
Debris
Shape & HBR
Box, 0.1 m
Radar Cross Section
0.015 m², Small (<0.1 m²)

Expand to show TLE details & history

TLE from 17 hours ago
0 EAGLESAT 1
1 43018U 17073F   25181.68044082  .00055009  00000-0  92733-3 0  9999
2 43018  97.5360  76.2307 0082098  19.2530 341.1790 15.47696436413767
Epoch: 2025-06-30T16:19Z
TLE epoch observation values (Epoch: 2025-06-30T16:19:50.086Z)
Latitude
-0.00007°
Longitude
-87.71475°
Altitude
373.773 km
Speed
7.715 km/s
True Right ascension
05h 04m 55s
True Declination
0° 00' 00"
Sunlit
Object was in daylight at epoch
Visualization orbit readout
Latitude
-79.19261°
Longitude
49.44233°
Altitude
474.07 km
Speed
7.615 km/s
Apparent Right ascension
09h 34m 08s
Apparent Declination
-64° 17' 16"
Sunlit
Object is in full shadow
Visualization observer readout
Local Sidereal Time
20:36:56
Azimuth
194.271° SSW
Elevation
-64.234°
Doppler factor
1
Orbital elements
Apogee altitude
476.216 km
Perigee altitude
364.586 km
Semi-major axis
6,798.538 km
Eccentricity
0.00821
Inclination
97.536°
RAAN
76.2307°
Arg. of periapsis
19.253°
True anomaly
Unknown
Mean anomaly
341.179°
Eccentric anomaly
Unknown
Mean motion
3.87186 °/min
Orbital period
92.98 mins
BSTAR
0.00092733
Loading maneuver chart data...
Loading SW <> Apogee altitude chart data...
Loading historical data...
Loading historical data...
Loading historical data...
Loading historical data...
Loading historical data...
Loading historical data...
Loading historical data...
Other satellites on launch #73 in the year 2017 (2017-11-18 UTC)

EAGLESAT 1 Visibility forecast

Observer location: undefined°, undefined°

Span
Click to sort rows by Start time (UTC) header in descending order
Start Az.
Max El. time (UTC)
Max El. Az.
Max El.
End time (UTC)
End Az.
5 mins2025-07-01 17:16:43.956Z184.024° SSW2025-07-01 17:19:43.956Z278.546° WNW35.511°2025-07-01 17:21:43.956Z332.382° NNW
5 mins2025-07-02 06:07:43.956Z355.752° N2025-07-02 06:09:43.956Z290.251° WNW38.829°2025-07-02 06:12:43.956Z208.888° SW
|